Location: Ammerl�gen
(47.2167°N, 9.6000°E)
Time: 09:56:06
(UTC+00:00)

Cosmos 2227 Rocket - Pass Details

Date: 21 April 2021
Orbit: 840 x 844 km, 71.0° (Epoch: 07 May)

Event Time Altitude Azimuth Distance (km) Brightness Sun altitude
Rises 19:06:16 0° 167° (SSE) 3,388 4.9 -8.2°
Reaches altitude 10° 19:09:07 10° 154° (SSE) 2,457 4.1 -8.6°
Maximum altitude 19:13:32 24° 102° (ESE) 1,670 3.2 -9.3°
Drops below altitude 10° 19:17:59 10° 50° (NE) 2,470 4.4 -9.9°
Sets 19:20:50 0° 37° (NE) 3,409 5.3 -10.3°
